Temperature
18 18 18 18 18 18 18 18 18 18 18 18 18 18 18 17 17 17 17 17 17 17 17 17 17 17 17 17 16 16 16 16 16 16 16 16 16 16 16 16 16 16 16
18 18 18 18 18 18 18 18 18 18 18 18 17 17 17 17 17 17 17 17 17 17 17 17 17 17 17 17 17 16 16 16 16 16 16 16 16 16 16 16 16 16 16
18 18 18 18 18 18 18 18 18 18 17 17 17 17 17 17 17 17 17 17 17 17 17 17 17 17 17 17 17 16 16 16 16 16 16 16 16 16 16 16 16 15 15
18 18 18 18 18 18 18 18 18 17 17 17 17 17 17 17 17 17 17 17 17 17 17 17 17 17 16 16 16 16 16 16 16 16 16 16 16 16 16 15 15 15 15
18 18 18 18 18 18 18 18 17 18 17 17 17 17 17 17 17 17 17 17 17 17 17 16 16 16 16 16 16 16 16 16 16 16 16 16 16 15 15 15 15 15 15
18 18 18 18 18 18 18 18 18 18 17 17 17 17 17 17 17 17 17 17 16 16 16 16 16 16 16 16 16 16 16 16 16 16 16 16 15 15 15 15 15 15 15
18 18 18 18 18 18 18 18 18 18 17 17 17 17 16 16 16 16 17 17 16 16 16 16 16 16 16 16 16 16 16 16 16 16 15 15 15 15 15 15 15 15 15
18 18 18 18 18 18 18 18 18 18 17 17 17 17 16 16 16 16 17 17 17 16 16 16 16 16 16 16 16 16 16 15 15 15 15 15 15 15 15 15 15 15 14
18 18 18 18 18 18 18 18 18 18 17 17 17 17 17 17 16 16 17 17 17 17 16 16 16 16 16 16 16 16 15 15 15 15 15 15 15 15 14 14 14 14 14
18 18 18 18 18 18 18 18 18 17 17 18 18 18 18 17 17 16 16 16 16 16 16 16 16 16 16 16 16 15 15 15 15 15 15 15 14 14 14 14 14 14 14
18 18 18 18 18 18 18 18 17 17 17 18 18 18 18 17 17 17 16 16 16 16 16 16 16 16 16 16 15 15 15 15 15 15 14 14 14 14 14 14 14 14 14
18 18 18 18 18 18 18 18 18 17 17 17 17 17 17 17 17 17 17 16 16 16 16 16 16 16 15 15 15 15 15 15 15 14 14 14 14 14 14 14 13 13 13
19 18 18 18 18 18 18 18 17 17 17 17 17 17 17 17 17 17 17 17 16 16 16 16 16 15 15 15 15 15 15 15 14 14 14 14 14 14 13 13 13 13 13
19 19 18 18 18 18 18 18 17 17 17 17 17 17 17 17 17 17 17 17 16 16 16 16 15 15 15 15 15 15 14 14 14 14 14 14 14 13 13 13 13 13 13
19 18 18 18 18 18 18 18 18 17 17 17 17 17 17 17 17 17 17 17 17 16 16 15 15 15 15 15 15 14 14 14 14 14 14 13 13 13 13 13 13 13 12
19 18 18 18 18 18 18 18 18 17 17 17 17 17 17 17 17 17 17 17 16 16 16 15 15 15 15 14 14 14 14 14 14 14 13 13 13 13 13 13 12 12 12
19 19 18 18 18 18 18 18 18 17 17 17 17 17 17 17 17 17 17 17 16 16 16 16 15 15 14 14 14 14 14 14 13 13 13 13 13 13 12 12 12 12 12
19 19 18 18 18 18 18 18 18 17 17 17 17 17 17 17 17 17 17 16 16 16 16 16 15 15 14 14 14 14 13 13 13 13 13 12 12 12 12 12 12 12 11
19 18 18 18 18 18 18 18 18 17 17 17 17 17 17 17 17 17 17 16 16 16 16 16 15 15 14 14 14 13 13 13 13 12 12 12 12 12 12 12 12 11 11
19 18 18 18 18 18 18 18 18 17 17 17 17 17 17 17 17 17 16 16 16 16 15 15 15 14 14 14 13 13 13 12 12 12 12 12 12 12 12 11 11 11 11
19 19 18 18 18 18 18 18 17 17 17 17 17 17 17 17 17 16 16 16 16 16 15 15 15 14 14 14 13 13 13 12 12 12 12 12 12 11 11 11 11 11 11
19 18 18 18 18 18 18 18 17 17 17 17 17 17 17 17 17 16 16 16 16 15 15 15 15 14 14 14 14 13 13 12 12 12 12 12 11 11 11 11 11 11 10
18 18 18 18 18 18 18 17 17 17 17 17 17 17 17 17 17 16 16 16 15 15 15 15 15 14 14 14 14 13 13 13 12 12 12 11 11 11 11 11 10 10 10
18 18 18 18 18 17 17 17 17 17 17 17 17 17 16 16 16 16 16 15 15 15 15 14 14 14 14 14 13 13 13 12 12 11 11 11 11 11 11 11 10 10 10
18 18 18 18 17 17 17 17 17 17 17 17 16 16 16 16 16 16 16 15 15 15 14 14 14 14 14 13 13 13 12 12 11 11 11 11 11 11 11 11 10 10 10
18 18 18 17 17 17 17 17 17 16 16 16 16 16 16 16 16 15 15 15 15 15 14 14 14 14 13 13 13 13 12 12 11 11 11 11 11 11 10 11 10 10 10
Wind_Speed
3 3 3 3 3 4 4 4 4 4 5 5 6 7 6 6 7 7 8 10 10 9 8 8 8 8 8 8 8 8 8 8 9 9 9 9 8 8 9 8 8 8 8
4 3 3 3 3 4 5 5 5 4 4 5 5 6 6 7 7 7 7 8 9 7 6 7 8 8 8 8 8 8 8 8 9 9 8 9 8 8 8 9 9 8 9
5 4 3 3 4 5 6 6 5 5 5 5 4 4 5 6 7 6 6 6 6 6 5 6 6 7 7 7 8 8 8 8 8 8 8 8 8 8 8 8 9 9 9
6 5 4 3 4 5 5 4 4 5 4 4 3 3 3 4 5 5 5 5 5 4 4 4 5 5 6 6 8 8 7 7 8 8 8 8 8 8 8 8 9 9 9
7 6 4 3 5 4 3 4 4 4 4 4 3 2 2 2 3 5 5 5 5 4 4 4 4 5 6 6 6 7 7 7 7 7 7 7 7 8 8 8 9 9 9
7 6 4 4 5 4 3 3 4 3 3 3 4 3 2 1 2 3 4 4 4 5 5 4 3 4 6 6 5 5 6 6 6 6 6 6 7 7 7 8 8 8 8
6 6 4 4 4 3 3 4 4 4 2 3 4 3 3 2 1 1 2 3 3 4 4 4 3 4 4 5 6 6 6 7 6 5 5 5 6 6 7 6 6 6 7
6 6 5 3 3 3 3 3 4 3 2 3 4 3 1 2 2 0 1 2 2 3 3 4 4 5 4 4 5 7 7 6 6 5 4 4 4 4 5 5 5 5 6
5 5 6 5 4 4 4 3 4 4 3 2 2 4 3 3 1 2 1 1 1 1 1 2 4 5 5 4 4 5 6 6 5 4 4 4 4 3 3 3 4 5 6
4 5 5 5 4 3 4 3 3 3 4 2 1 1 3 4 3 1 2 1 0 1 1 2 2 4 5 4 4 4 5 5 5 5 4 3 2 2 3 3 4 4 5
2 3 4 4 4 3 3 3 3 3 3 3 2 1 1 1 2 3 1 1 1 1 0 1 2 3 4 4 4 4 4 4 4 3 2 2 1 1 2 2 2 2 3
0 1 3 3 3 3 3 3 3 3 2 2 2 2 2 2 3 3 3 2 1 1 1 0 1 2 4 5 5 6 6 5 4 3 2 2 1 1 1 0 0 1 1
1 2 2 3 2 3 3 3 3 2 2 2 2 2 2 3 3 3 3 2 1 1 0 1 0 2 3 5 6 7 6 6 5 4 3 3 3 2 2 1 2 2 2
3 3 3 3 3 3 3 3 2 2 2 2 2 2 2 2 2 3 4 4 2 1 0 1 0 1 3 6 6 7 6 7 6 5 4 4 5 5 4 4 3 3 3
3 3 3 3 3 3 3 3 2 2 2 2 2 2 2 2 2 3 4 5 5 3 3 3 1 1 3 5 6 6 6 7 6 6 5 5 5 5 5 5 4 3 3
3 3 3 3 3 3 3 3 2 2 2 2 2 2 2 2 2 2 3 3 4 4 3 3 2 2 3 4 6 6 6 7 6 6 5 5 5 5 5 5 5 4 4
4 4 4 3 3 3 3 3 3 3 3 2 2 3 3 2 2 2 2 3 3 4 3 2 1 2 3 4 4 5 5 5 5 5 5 5 5 5 5 5 4 4 4
4 4 4 3 3 3 3 4 4 3 4 3 3 3 3 2 2 2 2 3 3 3 4 4 2 2 2 4 4 3 4 4 4 4 5 5 5 5 5 4 4 4 4
4 4 3 3 3 3 3 4 4 4 4 4 4 4 4 3 3 2 3 3 2 3 3 5 3 2 2 3 3 2 3 2 3 4 4 4 5 5 4 4 3 3 3
5 4 4 4 3 3 3 4 4 3 4 4 4 4 5 4 4 4 3 4 3 4 4 5 4 3 2 2 3 3 2 1 1 3 3 3 3 4 4 4 3 3 4
5 5 4 3 3 3 4 4 3 4 4 4 4 4 5 6 7 5 5 5 5 4 4 4 4 3 3 3 4 3 3 2 1 2 2 2 2 2 3 4 4 4 5
4 4 4 4 4 4 5 7 5 4 4 4 4 4 4 4 5 5 6 7 8 7 6 5 4 5 5 5 4 4 4 3 2 3 3 2 2 2 4 5 5 5 6
3 4 4 4 4 5 6 6 6 4 4 4 5 5 4 4 4 3 4 5 6 8 10 7 7 6 6 7 7 6 5 5 4 4 4 3 2 3 5 6 7 7 7
4 4 4 4 4 5 6 6 5 4 4 4 5 6 5 4 4 5 5 3 3 3 5 6 6 6 6 7 8 8 7 4 1 1 4 3 3 3 4 6 9 10 9
4 4 4 4 5 5 6 6 5 3 3 4 4 4 5 5 7 8 6 5 3 2 3 5 6 7 8 9 9 5 5 4 3 3 3 3 3 2 2 3 8 10 11
4 3 3 4 5 5 6 7 6 4 3 3 3 3 6 7 8 9 7 7 6 5 3 2 2 3 5 7 11 9 8 6 3 3 4 4 3 3 1 2 4 7 9
Wind_Direction
116 115 117 116 117 118 119 117 108 105 106 105 109 113 119 127 134 137 144 151 153 159 163 169 175 180 182 182 180 179 178 178 182 186 190 196 199 200 200 201 204 208 211
123 116 103 102 115 123 126 122 115 107 101 102 102 106 115 120 124 129 139 152 156 157 167 174 180 178 178 181 183 182 180 182 187 191 195 198 200 204 207 209 213 216 217
123 120 107 103 116 122 117 111 104 100 101 100 99 105 109 115 122 126 132 139 153 160 160 158 162 168 172 177 181 182 183 187 191 195 199 204 208 213 214 216 218 220 219
125 118 112 111 119 115 113 110 106 104 100 101 100 102 103 112 125 132 133 134 136 145 158 157 158 164 171 175 182 182 185 191 197 200 203 207 211 216 217 222 222 221 217
132 128 123 123 123 112 111 125 114 119 117 115 118 111 103 122 135 134 128 136 144 150 158 171 174 176 180 180 181 189 191 192 198 199 203 208 213 217 218 219 221 221 217
132 128 128 130 124 112 110 116 122 120 125 132 125 107 94 125 134 145 149 146 156 165 168 172 185 194 189 188 192 195 197 197 196 199 204 213 219 220 223 225 226 224 221
135 131 126 128 125 130 145 143 130 123 123 120 100 73 34 37 92 152 133 138 161 174 166 171 179 181 192 203 202 198 197 199 200 199 203 214 222 224 223 220 220 226 225
135 141 133 142 140 138 138 143 136 134 156 152 139 129 92 7 359 338 149 160 178 167 172 183 175 178 187 189 196 203 205 206 204 206 207 216 217 209 207 212 216 222 223
140 142 147 146 153 154 159 171 162 155 176 206 169 153 155 195 260 344 343 154 160 160 171 168 173 182 188 186 189 195 199 201 205 209 209 208 202 199 204 213 224 227 227
144 148 151 151 155 159 164 182 172 164 161 183 215 189 171 159 160 194 333 327 180 173 194 167 157 165 168 168 175 172 183 195 206 212 210 193 180 191 211 226 233 233 233
148 148 152 154 158 163 171 176 165 158 162 170 180 178 150 140 149 159 216 289 346 324 227 149 134 140 142 153 164 169 170 164 169 177 175 176 178 203 221 227 231 232 232
187 167 149 154 162 166 174 177 174 163 166 170 171 171 173 174 182 167 188 207 221 276 307 126 135 126 129 133 142 141 137 128 121 124 138 143 140 138 138 157 243 234 228
197 208 174 165 174 181 180 169 164 172 178 179 188 195 195 201 179 161 158 181 196 258 339 354 199 142 137 133 135 138 134 129 122 118 119 115 113 106 95 80 89 75 70
203 194 177 181 188 183 184 169 175 193 182 188 205 196 196 210 179 168 165 160 161 290 277 239 322 162 142 138 138 137 132 132 128 124 120 112 105 95 84 77 85 85 84
197 184 182 186 192 185 181 175 190 206 190 198 206 206 209 227 196 183 173 166 165 192 237 223 209 178 148 140 141 134 134 139 132 128 122 116 108 97 88 80 76 75 80
194 186 186 193 202 200 188 180 192 203 191 215 207 199 219 227 212 191 186 184 176 175 199 212 206 181 161 144 143 138 138 137 135 134 129 123 115 108 100 91 85 85 88
196 192 193 190 196 200 194 185 198 192 195 224 224 207 225 216 206 204 184 177 177 161 174 214 190 159 148 145 138 142 142 137 134 136 136 129 123 120 116 111 100 94 93
205 201 196 194 204 207 203 197 206 201 198 213 225 216 226 212 207 198 180 178 178 165 162 175 182 159 161 161 151 150 150 144 138 132 137 136 130 128 128 124 119 113 106
201 199 195 202 211 213 213 209 201 199 199 209 209 205 215 198 210 203 183 179 173 155 145 155 172 164 152 157 142 135 134 132 140 137 139 145 146 148 146 144 141 140 132
193 196 198 204 208 212 217 205 192 197 205 213 210 204 206 199 203 199 192 180 162 145 140 145 153 157 156 156 147 152 153 185 178 160 160 165 166 170 176 173 168 163 159
198 194 191 201 207 209 212 198 197 203 204 214 219 216 213 204 199 196 190 177 161 154 150 152 160 161 172 171 184 180 178 183 227 191 167 194 195 207 218 211 201 192 185
205 193 193 201 212 224 212 202 198 203 206 206 219 229 223 210 197 187 183 181 175 171 173 171 179 187 197 195 183 179 168 162 220 210 168 216 196 219 233 225 215 203 198
208 207 207 207 220 229 217 212 207 204 208 214 216 217 220 211 190 178 170 167 184 188 185 180 187 200 196 196 182 186 188 185 202 191 163 211 212 225 236 226 219 217 215
209 218 218 217 224 235 222 218 213 210 216 225 221 215 209 211 198 174 163 168 188 200 197 189 194 203 200 194 192 192 188 180 174 176 162 190 211 222 232 233 229 225 224
222 223 217 217 223 240 228 220 205 200 220 237 229 209 198 202 201 179 169 178 191 217 203 190 194 200 200 197 184 163 159 156 194 226 190 177 198 205 230 237 238 230 228
220 218 227 225 222 234 235 222 204 196 212 234 244 222 205 202 199 185 183 184 197 211 189 195 212 223 208 201 191 184 180 178 180 214 205 179 184 164 235 250 230 229 228
Height
1531 1532 1532 1532 1533 1534 1535 1536 1537 1538 1539 1541 1542 1543 1544 1545 1545 1546 1547 1548 1548 1548 1548 1549 1549 1550 1550 1551 1551 1551 1551 1551 1552 1553 1554 1555 1556 1556 1557 1558 1559 1560 1560
1532 1533 1534 1534 1535 1536 1537 1538 1539 1540 1541 1542 1543 1544 1545 1546 1547 1547 1548 1548 1548 1548 1549 1549 1549 1549 1550 1550 1550 1550 1550 1551 1551 1552 1553 1554 1554 1555 1556 1556 1557 1558 1559
1534 1534 1535 1536 1536 1537 1538 1539 1540 1541 1543 1544 1544 1546 1546 1547 1548 1548 1548 1549 1549 1549 1549 1549 1549 1549 1549 1549 1550 1550 1550 1550 1551 1551 1552 1552 1553 1553 1554 1554 1555 1556 1557
1535 1535 1536 1537 1538 1539 1540 1541 1542 1543 1544 1545 1546 1547 1547 1548 1549 1549 1549 1549 1549 1549 1549 1548 1548 1549 1549 1549 1549 1549 1549 1549 1550 1550 1551 1551 1551 1551 1552 1552 1553 1553 1554
1537 1537 1538 1538 1539 1540 1541 1542 1543 1543 1544 1545 1546 1547 1548 1549 1549 1549 1549 1549 1549 1549 1548 1548 1548 1548 1549 1548 1548 1548 1548 1548 1549 1549 1549 1549 1549 1549 1550 1550 1550 1550 1551
1538 1538 1539 1540 1541 1541 1542 1542 1543 1544 1545 1546 1547 1548 1549 1549 1550 1550 1550 1549 1549 1549 1549 1548 1548 1548 1548 1548 1548 1548 1548 1548 1548 1547 1547 1547 1547 1547 1547 1547 1547 1548 1548
1539 1540 1540 1541 1541 1542 1542 1543 1544 1545 1546 1547 1547 1548 1549 1549 1549 1549 1549 1549 1549 1549 1548 1548 1548 1548 1548 1548 1547 1547 1547 1547 1546 1546 1546 1545 1545 1544 1544 1545 1544 1544 1544
1540 1541 1541 1541 1542 1542 1543 1544 1544 1545 1546 1547 1547 1547 1548 1550 1548 1549 1549 1549 1549 1548 1547 1547 1547 1547 1547 1547 1547 1546 1546 1546 1545 1545 1544 1544 1543 1543 1542 1542 1542 1541 1542
1541 1541 1541 1541 1542 1542 1543 1543 1544 1544 1545 1546 1547 1547 1547 1547 1548 1548 1548 1548 1548 1548 1547 1546 1546 1546 1546 1546 1545 1545 1545 1545 1544 1544 1543 1542 1542 1541 1540 1540 1539 1539 1539
1541 1541 1541 1541 1542 1542 1542 1543 1543 1544 1544 1544 1545 1546 1546 1546 1546 1547 1547 1547 1547 1547 1547 1546 1545 1545 1545 1544 1544 1544 1544 1544 1543 1542 1541 1541 1540 1539 1538 1538 1537 1536 1536
1540 1541 1541 1541 1541 1541 1541 1542 1542 1543 1543 1543 1544 1544 1544 1545 1545 1545 1545 1546 1546 1546 1546 1545 1544 1544 1544 1543 1543 1542 1542 1542 1541 1540 1540 1539 1539 1538 1537 1536 1535 1535 1534
1539 1540 1540 1540 1540 1540 1540 1540 1541 1541 1542 1542 1542 1543 1543 1543 1543 1543 1543 1543 1544 1544 1544 1544 1543 1543 1543 1542 1541 1541 1541 1540 1539 1539 1538 1537 1536 1536 1535 1534 1534 1533 1533
1538 1538 1539 1539 1539 1539 1539 1539 1540 1540 1540 1541 1541 1541 1541 1541 1542 1542 1542 1542 1542 1542 1542 1542 1542 1542 1541 1541 1541 1540 1539 1539 1538 1537 1536 1535 1535 1534 1533 1533 1532 1532 1532
1537 1537 1537 1537 1537 1537 1537 1538 1538 1538 1539 1539 1539 1540 1540 1540 1540 1540 1540 1540 1540 1540 1540 1540 1540 1540 1540 1540 1540 1539 1539 1538 1538 1537 1536 1535 1534 1533 1533 1532 1531 1531 1530
1535 1536 1536 1536 1536 1536 1536 1536 1536 1536 1537 1537 1538 1538 1538 1538 1538 1538 1538 1539 1539 1538 1538 1538 1538 1538 1538 1538 1538 1538 1538 1537 1537 1536 1535 1534 1533 1533 1532 1531 1531 1530 1530
1534 1534 1534 1534 1534 1534 1534 1534 1534 1534 1535 1535 1536 1536 1536 1536 1536 1536 1536 1536 1536 1536 1535 1535 1536 1536 1537 1537 1537 1537 1537 1536 1536 1535 1535 1534 1533 1532 1532 1531 1530 1529 1529
1532 1532 1532 1532 1531 1531 1532 1532 1532 1532 1533 1533 1533 1533 1533 1534 1534 1534 1534 1534 1534 1534 1533 1534 1534 1535 1535 1535 1536 1536 1535 1535 1535 1535 1534 1534 1533 1532 1531 1530 1530 1529 1528
1530 1530 1530 1529 1529 1529 1530 1530 1530 1530 1530 1531 1531 1531 1531 1531 1531 1531 1531 1531 1531 1531 1532 1531 1532 1533 1533 1534 1534 1535 1535 1534 1534 1534 1533 1533 1532 1532 1531 1530 1529 1529 1528
1528 1528 1528 1527 1527 1527 1527 1527 1528 1528 1528 1528 1529 1529 1529 1529 1528 1529 1529 1529 1529 1529 1529 1530 1530 1531 1531 1532 1532 1533 1533 1533 1533 1533 1533 1532 1532 1531 1530 1530 1529 1528 1527
1526 1526 1526 1525 1525 1525 1525 1524 1525 1525 1525 1525 1526 1526 1526 1526 1526 1526 1526 1526 1526 1526 1527 1528 1528 1529 1529 1530 1530 1531 1531 1531 1531 1531 1531 1531 1531 1530 1530 1529 1528 1528 1527
1523 1523 1523 1523 1523 1523 1522 1522 1522 1522 1522 1522 1523 1523 1523 1523 1523 1523 1523 1524 1524 1524 1525 1525 1526 1526 1527 1527 1528 1528 1529 1529 1529 1529 1530 1529 1529 1529 1528 1528 1527 1527 1526
1520 1520 1520 1520 1520 1520 1520 1520 1520 1520 1520 1520 1519 1519 1519 1519 1520 1520 1520 1521 1522 1522 1522 1522 1523 1523 1523 1524 1525 1525 1526 1526 1526 1527 1527 1527 1527 1527 1527 1526 1526 1526 1525
1517 1517 1517 1517 1517 1517 1517 1517 1517 1517 1516 1516 1516 1516 1516 1516 1517 1516 1517 1517 1518 1519 1520 1520 1520 1520 1521 1521 1522 1522 1523 1523 1523 1524 1525 1525 1525 1525 1525 1525 1525 1524 1524
1514 1514 1514 1514 1514 1514 1514 1514 1514 1514 1513 1513 1512 1512 1512 1513 1514 1514 1513 1514 1514 1515 1516 1516 1517 1517 1518 1519 1519 1520 1520 1521 1521 1521 1522 1522 1522 1522 1523 1523 1523 1523 1523
1511 1511 1511 1511 1511 1511 1511 1511 1511 1510 1509 1509 1509 1509 1509 1509 1510 1510 1510 1510 1510 1511 1512 1512 1513 1514 1515 1515 1516 1516 1516 1517 1517 1518 1519 1519 1519 1519 1520 1520 1520 1520 1520
1508 1508 1508 1508 1507 1507 1507 1507 1507 1507 1506 1505 1505 1505 1505 1505 1506 1507 1506 1506 1506 1507 1508 1508 1510 1510 1511 1512 1512 1512 1513 1513 1513 1514 1515 1516 1516 1516 1517 1517 1517 1517 1517